| time (UTC) | temp F | wind direction | speed MPH | gust MPH | rain 1hr in | rain 24hr in | rain mn in | humidity % | barometer mb |
| 20260510200004 | 62 | 182 | 3.0 | 10.0 | 0.00 | 0.00 | 0.00 | 29 | 1012.2 |
| 20260510195403 | 62 | 179 | 3.0 | 10.0 | 0.00 | 0.00 | 0.00 | 35 | 1012.3 |
| 20260510194503 | 62 | 193 | 2.0 | 8.0 | 0.00 | 0.00 | 0.00 | 34 | 1012.4 |
| 20260510193603 | 62 | 179 | 3.0 | 9.0 | 0.00 | 0.00 | 0.00 | 33 | 1012.2 |
| 20260510192703 | 62 | 173 | 3.0 | 10.0 | 0.00 | 0.00 | 0.00 | 33 | 1012.8 |
| 20260510191803 | 62 | 166 | 4.0 | 10.0 | 0.00 | 0.00 | 0.00 | 37 | 1012.4 |
| 20260510190903 | 61 | 184 | 3.0 | 6.0 | 0.00 | 0.00 | 0.00 | 38 | 1012.5 |
| 20260510190003 | 60 | 161 | 4.0 | 10.0 | 0.00 | 0.00 | 0.00 | 37 | 1012.9 |
| 20260510185403 | 60 | 183 | 3.0 | 8.0 | 0.00 | 0.00 | 0.00 | 38 | 1013.0 |
| 20260510184503 | 59 | 171 | 3.0 | 8.0 | 0.00 | 0.00 | 0.00 | 40 | 1013.1 |
| 20260510183603 | 59 | 187 | 2.0 | 6.0 | 0.00 | 0.00 | 0.00 | 39 | 1013.1 |
| 20260510182703 | 58 | 176 | 2.0 | 8.0 | 0.00 | 0.00 | 0.00 | 39 | 1013.0 |
| 20260510181803 | 58 | 188 | 2.0 | 5.0 | 0.00 | 0.00 | 0.00 | 41 | 1013.2 |
| 20260510180903 | 58 | 170 | 2.0 | 5.0 | 0.00 | 0.00 | 0.00 | 42 | 1013.3 |
| 20260510180003 | 58 | 175 | 2.0 | 5.0 | 0.00 | 0.00 | 0.00 | 42 | 1013.2 |
| 20260510175403 | 57 | 212 | 1.0 | 4.0 | 0.00 | 0.00 | 0.00 | 41 | 1013.3 |
| 20260510174717 | 57 | 168 | 3.0 | 9.0 | 0.00 | 0.00 | 0.00 | 42 | 1013.5 |
| 20260510173603 | 57 | 170 | 3.0 | 6.0 | 0.00 | 0.00 | 0.00 | 43 | 1013.5 |
| 20260510172703 | 56 | 174 | 3.0 | 7.0 | 0.00 | 0.00 | 0.00 | 45 | 1013.3 |
| 20260510171803 | 56 | 171 | 3.0 | 8.0 | 0.00 | 0.00 | 0.00 | 46 | 1013.7 |
| 20260510170903 | 56 | 168 | 3.0 | 9.0 | 0.00 | 0.00 | 0.00 | 48 | 1013.8 |
| 20260510170004 | 55 | 153 | 3.0 | 8.0 | 0.00 | 0.00 | 0.00 | 49 | 1014.0 |
| 20260510165403 | 54 | 166 | 3.0 | 5.0 | 0.00 | 0.00 | 0.00 | 52 | 1013.7 |
| 20260510164503 | 54 | 168 | 3.0 | 6.0 | 0.00 | 0.00 | 0.00 | 50 | 1013.9 |
| 20260510163603 | 54 | 174 | 2.0 | 5.0 | 0.00 | 0.00 | 0.00 | 54 | 1013.7 |
| 20260510162703 | 53 | 145 | 2.0 | 6.0 | 0.00 | 0.00 | 0.00 | 53 | 1013.7 |
| 20260510161803 | 53 | 139 | 2.0 | 6.0 | 0.00 | 0.00 | 0.00 | 57 | 1013.9 |
| 20260510160903 | 52 | 142 | 2.0 | 5.0 | 0.00 | 0.00 | 0.00 | 57 | 1014.0 |
| 20260510160217 | 51 | 169 | 1.0 | 4.0 | 0.00 | 0.00 | 0.00 | 60 | 1014.1 |
| 20260510155617 | 51 | 139 | 1.0 | 3.0 | 0.00 | 0.00 | 0.00 | 59 | 1014.0 |
| 20260510154504 | 50 | 167 | 0.0 | 3.0 | 0.00 | 0.00 | 0.00 | 64 | 1013.9 |
| 20260510153603 | 50 | 179 | 0.0 | 2.0 | 0.00 | 0.00 | 0.00 | 67 | 1014.1 |
| 20260510152703 | 49 | 180 | 1.0 | 3.0 | 0.00 | 0.00 | 0.00 | 68 | 1014.0 |
| 20260510151803 | 49 | 188 | 1.0 | 3.0 | 0.00 | 0.00 | 0.00 | 70 | 1013.8 |
| 20260510150903 | 48 | 171 | 1.0 | 4.0 | 0.00 | 0.00 | 0.00 | 70 | 1013.9 |
| 20260510150003 | 47 | 179 | 2.0 | 5.0 | 0.00 | 0.00 | 0.00 | 71 | 1014.1 |
| 20260510145403 | 47 | 163 | 1.0 | 4.0 | 0.00 | 0.00 | 0.00 | 72 | 1013.8 |
| 20260510144503 | 46 | 164 | 1.0 | 2.0 | 0.00 | 0.00 | 0.00 | 71 | 1014.2 |
| 20260510143603 | 46 | 179 | 0.0 | 3.0 | 0.00 | 0.00 | 0.00 | 71 | 1014.0 |
| 20260510142917 | 46 | 131 | 0.0 | 2.0 | 0.00 | 0.00 | 0.00 | 72 | 1014.1 |
| 20260510141803 | 45 | 148 | 0.0 | 2.0 | 0.00 | 0.00 | 0.00 | 72 | 1014.1 |
| 20260510140903 | 45 | 100 | 0.0 | 2.0 | 0.00 | 0.00 | 0.00 | 73 | 1014.2 |
| 20260510140003 | 44 | 173 | 0.0 | 3.0 | 0.00 | 0.00 | 0.00 | 73 | 1014.1 |
| 20260510135618 | 44 | 169 | 1.0 | 3.0 | 0.00 | 0.00 | 0.00 | 71 | 1014.0 |
| 20260510134503 | 44 | 163 | 1.0 | 3.0 | 0.00 | 0.00 | 0.00 | 70 | 1014.0 |
| 20260510133817 | 44 | 163 | 1.0 | 3.0 | 0.00 | 0.00 | 0.00 | 70 | 1014.0 |
| 20260510132703 | 44 | 151 | 0.0 | 2.0 | 0.00 | 0.00 | 0.00 | 70 | 1014.0 |
| 20260510131803 | 44 | 37 | 0.0 | 1.0 | 0.00 | 0.00 | 0.00 | 69 | 1014.4 |
| 20260510130903 | 44 | 180 | 0.0 | 2.0 | 0.00 | 0.00 | 0.00 | 69 | 1014.2 |
| 20260510130003 | 44 | 148 | 1.0 | 3.0 | 0.00 | 0.00 | 0.00 | 68 | 1014.2 |
| 20260510125403 | 44 | 150 | 1.0 | 3.0 | 0.00 | 0.00 | 0.00 | 68 | 1014.2 |
| 20260510124504 | 44 | 164 | 2.0 | 4.0 | 0.00 | 0.00 | 0.00 | 68 | 1014.0 |
| 20260510123816 | 44 | 171 | 2.0 | 4.0 | 0.00 | 0.00 | 0.00 | 65 | 1014.0 |
| 20260510122703 | 44 | 171 | 0.0 | 2.0 | 0.00 | 0.00 | 0.00 | 65 | 1014.3 |
| 20260510121803 | 44 | 161 | 0.0 | 2.0 | 0.00 | 0.00 | 0.00 | 64 | 1014.4 |
| 20260510120903 | 44 | 92 | 0.0 | 2.0 | 0.00 | 0.00 | 0.00 | 61 | 1014.4 |
| 20260510120004 | 44 | 108 | 0.0 | 2.0 | 0.00 | 0.00 | 0.00 | 60 | 1014.3 |
| 20260510115403 | 44 | 55 | 0.0 | 2.0 | 0.00 | 0.00 | 0.00 | 59 | 1014.3 |
| 20260510114719 | 45 | 159 | 0.0 | 1.0 | 0.00 | 0.00 | 0.00 | 57 | 1014.4 |
| 20260510113606 | 45 | 170 | 0.0 | 2.0 | 0.00 | 0.00 | 0.00 | 55 | 1014.4 |
| 20260510112703 | 46 | 136 | 1.0 | 2.0 | 0.00 | 0.00 | 0.00 | 53 | 1014.4 |
| 20260510111803 | 46 | 128 | 0.0 | 2.0 | 0.00 | 0.00 | 0.00 | 52 | 1014.8 |
| 20260510111118 | 46 | 182 | 0.0 | 2.0 | 0.00 | 0.00 | 0.00 | 54 | 1014.7 |
| 20260510110003 | 47 | 161 | 1.0 | 2.0 | 0.00 | 0.00 | 0.00 | 49 | 1014.7 |
| 20260510105403 | 47 | 166 | 1.0 | 2.0 | 0.00 | 0.00 | 0.00 | 48 | 1014.6 |
| 20260510104503 | 47 | 153 | 0.0 | 2.0 | 0.00 | 0.00 | 0.00 | 49 | 1014.6 |
| 20260510103603 | 47 | 69 | 0.0 | 2.0 | 0.00 | 0.00 | 0.00 | 50 | 1014.6 |
| 20260510102703 | 47 | 19 | 1.0 | 2.0 | 0.00 | 0.00 | 0.00 | 50 | 1014.4 |
| 20260510101803 | 47 | 19 | 0.0 | 2.0 | 0.00 | 0.00 | 0.00 | 52 | 1014.4 |
| 20260510100903 | 48 | 118 | 0.0 | 2.0 | 0.00 | 0.00 | 0.00 | 52 | 1014.4 |
| 20260510100003 | 48 | 109 | 1.0 | 4.0 | 0.00 | 0.00 | 0.00 | 45 | 1014.3 |
| 20260510095403 | 48 | 28 | 1.0 | 3.0 | 0.00 | 0.00 | 0.00 | 50 | 1014.4 |
| 20260510094718 | 48 | 50 | 1.0 | 3.0 | 0.00 | 0.00 | 0.00 | 53 | 1014.3 |
| 20260510093817 | 49 | 65 | 0.0 | 2.0 | 0.00 | 0.00 | 0.00 | 49 | 1014.4 |
| 20260510092703 | 50 | 169 | 1.0 | 3.0 | 0.00 | 0.00 | 0.00 | 44 | 1014.2 |
| 20260510092018 | 51 | 170 | 2.0 | 4.0 | 0.00 | 0.00 | 0.00 | 43 | 1014.3 |
| 20260510091118 | 51 | 171 | 3.0 | 4.0 | 0.00 | 0.00 | 0.00 | 40 | 1014.2 |
| 20260510090003 | 51 | 168 | 2.0 | 4.0 | 0.00 | 0.00 | 0.00 | 42 | 1014.2 |
| 20260510085403 | 51 | 168 | 2.0 | 4.0 | 0.00 | 0.00 | 0.00 | 44 | 1014.0 |
| 20260510084503 | 51 | 171 | 2.0 | 4.0 | 0.00 | 0.00 | 0.00 | 43 | 1014.1 |
| 20260510083604 | 52 | 155 | 3.0 | 7.0 | 0.00 | 0.00 | 0.00 | 42 | 1014.2 |
| 20260510082703 | 52 | 147 | 3.0 | 8.0 | 0.00 | 0.00 | 0.00 | 41 | 1014.1 |
| 20260510081803 | 51 | 150 | 2.0 | 6.0 | 0.00 | 0.00 | 0.00 | 43 | 1014.4 |
| 20260510080904 | 51 | 174 | 2.0 | 4.0 | 0.00 | 0.00 | 0.00 | 45 | 1014.4 |
| 20260510080216 | 51 | 171 | 2.0 | 4.0 | 0.00 | 0.00 | 0.00 | 46 | 1014.4 |
| 20260510075403 | 51 | 171 | 2.0 | 5.0 | 0.00 | 0.00 | 0.00 | 44 | 1014.4 |
| 20260510074504 | 51 | 167 | 2.0 | 4.0 | 0.00 | 0.00 | 0.00 | 45 | 1014.6 |
| 20260510073603 | 51 | 171 | 2.0 | 4.0 | 0.00 | 0.00 | 0.00 | 45 | 1014.3 |
| 20260510072703 | 52 | 165 | 1.0 | 6.0 | 0.00 | 0.00 | 0.00 | 45 | 1014.6 |
| 20260510071803 | 51 | 164 | 2.0 | 6.0 | 0.00 | 0.00 | 0.00 | 45 | 1014.6 |
| 20260510070903 | 51 | 172 | 2.0 | 4.0 | 0.00 | 0.00 | 0.00 | 47 | 1014.7 |
| 20260510070003 | 52 | 176 | 3.0 | 6.0 | 0.00 | 0.00 | 0.00 | 49 | 1014.7 |
| 20260510065403 | 52 | 170 | 3.0 | 6.0 | 0.00 | 0.00 | 0.00 | 48 | 1014.7 |
| 20260510064503 | 51 | 168 | 2.0 | 5.0 | 0.00 | 0.00 | 0.00 | 50 | 1014.6 |
| 20260510063603 | 51 | 168 | 2.0 | 5.0 | 0.00 | 0.00 | 0.00 | 50 | 1014.6 |
| 20260510062703 | 51 | 141 | 1.0 | 4.0 | 0.00 | 0.00 | 0.00 | 52 | 1014.4 |
| 20260510061803 | 51 | 176 | 0.0 | 2.0 | 0.00 | 0.00 | 0.00 | 53 | 1014.6 |
| 20260510060903 | 52 | 151 | 1.0 | 4.0 | 0.00 | 0.00 | 0.00 | 51 | 1014.7 |
| 20260510060003 | 52 | 168 | 1.0 | 3.0 | 0.00 | 0.00 | 0.00 | 51 | 1014.7 |
| 20260510055617 | 52 | 175 | 1.0 | 4.0 | 0.00 | 0.00 | 0.00 | 51 | 1014.7 |
| 20260510054503 | 53 | 185 | 1.0 | 4.0 | 0.00 | 0.00 | 0.00 | 46 | 1014.8 |
| 20260510053818 | 54 | 168 | 1.0 | 4.0 | 0.00 | 0.00 | 0.00 | 43 | 1014.8 |
| 20260510052703 | 54 | 154 | 2.0 | 5.0 | 0.00 | 0.00 | 0.00 | 43 | 1014.8 |
| 20260510052016 | 54 | 155 | 2.0 | 5.0 | 0.00 | 0.00 | 0.00 | 45 | 1014.7 |
| 20260510050903 | 54 | 163 | 3.0 | 8.0 | 0.00 | 0.00 | 0.00 | 45 | 1014.9 |
| 20260510050003 | 54 | 171 | 2.0 | 5.0 | 0.00 | 0.00 | 0.00 | 47 | 1015.0 |
| 20260510045403 | 53 | 154 | 2.0 | 6.0 | 0.00 | 0.00 | 0.00 | 49 | 1015.0 |
| 20260510044503 | 53 | 155 | 2.0 | 5.0 | 0.00 | 0.00 | 0.00 | 48 | 1014.7 |
| 20260510043603 | 52 | 165 | 1.0 | 4.0 | 0.00 | 0.00 | 0.00 | 56 | 1014.9 |
| 20260510042917 | 52 | 158 | 1.0 | 4.0 | 0.00 | 0.00 | 0.00 | 56 | 1014.7 |
| 20260510041803 | 52 | 176 | 1.0 | 4.0 | 0.00 | 0.00 | 0.00 | 56 | 1014.9 |
| 20260510040903 | 52 | 153 | 1.0 | 4.0 | 0.00 | 0.00 | 0.00 | 56 | 1015.0 |
| 20260510040004 | 52 | 155 | 0.0 | 2.0 | 0.00 | 0.00 | 0.00 | 55 | 1014.7 |
| 20260510035403 | 53 | 139 | 0.0 | 2.0 | 0.00 | 0.00 | 0.00 | 55 | 1014.8 |
| 20260510034503 | 54 | 142 | 0.0 | 2.0 | 0.00 | 0.00 | 0.00 | 52 | 1014.7 |
| 20260510033603 | 55 | 178 | 1.0 | 2.0 | 0.00 | 0.00 | 0.00 | 51 | 1014.6 |
| 20260510032916 | 56 | 154 | 1.0 | 3.0 | 0.00 | 0.00 | 0.00 | 48 | 1014.7 |
| 20260510031803 | 56 | 149 | 1.0 | 3.0 | 0.00 | 0.00 | 0.00 | 46 | 1014.8 |
| 20260510030903 | 57 | 155 | 0.0 | 2.0 | 0.00 | 0.00 | 0.00 | 47 | 1014.7 |
| 20260510030004 | 58 | 164 | 1.0 | 3.0 | 0.00 | 0.00 | 0.00 | 43 | 1014.7 |
| 20260510025618 | 59 | 172 | 1.0 | 3.0 | 0.00 | 0.00 | 0.00 | 42 | 1014.6 |
| 20260510024504 | 60 | 183 | 2.0 | 7.0 | 0.00 | 0.00 | 0.00 | 40 | 1014.6 |
| 20260510023603 | 60 | 168 | 2.0 | 5.0 | 0.00 | 0.00 | 0.00 | 39 | 1014.4 |
| 20260510022703 | 61 | 162 | 2.0 | 6.0 | 0.00 | 0.00 | 0.00 | 38 | 1014.8 |
| 20260510021803 | 61 | 175 | 1.0 | 4.0 | 0.00 | 0.00 | 0.00 | 37 | 1014.8 |
| 20260510020903 | 61 | 180 | 2.0 | 6.0 | 0.00 | 0.00 | 0.00 | 35 | 1015.2 |
| 20260510020003 | 62 | 198 | 2.0 | 9.0 | 0.00 | 0.01 | 0.00 | 35 | 1015.1 |
| 20260510015403 | 62 | 186 | 2.0 | 9.0 | 0.00 | 0.02 | 0.00 | 35 | 1015.5 |
| 20260510014503 | 62 | 194 | 2.0 | 9.0 | 0.00 | 0.02 | 0.00 | 35 | 1015.5 |
| 20260510013603 | 62 | 186 | 2.0 | 7.0 | 0.00 | 0.05 | 0.00 | 36 | 1015.5 |
| 20260510012703 | 62 | 194 | 1.0 | 5.0 | 0.00 | 0.06 | 0.00 | 36 | 1015.6 |
| 20260510011803 | 62 | 192 | 2.0 | 7.0 | 0.00 | 0.09 | 0.00 | 35 | 1015.3 |
| 20260510010904 | 62 | 175 | 3.0 | 7.0 | 0.00 | 0.11 | 0.00 | 36 | 1015.5 |
| 20260510010003 | 63 | 173 | 3.0 | 7.0 | 0.00 | 0.15 | 0.00 | 33 | 1015.7 |
| 20260510005403 | 63 | 201 | 2.0 | 5.0 | 0.00 | 0.18 | 0.00 | 36 | 1015.8 |
| 20260510004503 | 63 | 190 | 2.0 | 8.0 | 0.00 | 0.25 | 0.00 | 36 | 1015.9 |
| 20260510003818 | 63 | 170 | 3.0 | 11.0 | 0.00 | 0.25 | 0.00 | 36 | 1015.9 |
| 20260510002703 | 64 | 165 | 4.0 | 7.0 | 0.00 | 0.25 | 0.00 | 34 | 1015.8 |
| 20260510001803 | 63 | 171 | 4.0 | 9.0 | 0.00 | 0.25 | 0.00 | 36 | 1016.1 |
| 20260510000903 | 63 | 177 | 4.0 | 16.0 | 0.00 | 0.25 | 0.00 | 36 | 1016.1 |
| 20260510000003 | 64 | 171 | 3.0 | 11.0 | 0.00 | 0.25 | 0.00 | 36 | 1016.1 |
| 20260509235403 | 64 | 164 | 3.0 | 9.0 | 0.00 | 0.25 | 0.00 | 37 | 1016.1 |
| 20260509234503 | 64 | 178 | 3.0 | 9.0 | 0.00 | 0.25 | 0.00 | 31 | 1016.1 |
| 20260509233603 | 64 | 183 | 2.0 | 7.0 | 0.00 | 0.25 | 0.00 | 37 | 1016.4 |
| 20260509232703 | 64 | 175 | 2.0 | 8.0 | 0.00 | 0.25 | 0.00 | 38 | 1016.7 |
| 20260509231803 | 65 | 163 | 4.0 | 9.0 | 0.00 | 0.25 | 0.00 | 33 | 1016.6 |
| 20260509230903 | 64 | 168 | 3.0 | 6.0 | 0.00 | 0.25 | 0.00 | 38 | 1016.7 |
| 20260509230217 | 64 | 163 | 3.0 | 6.0 | 0.00 | 0.25 | 0.00 | 35 | 1016.7 |
| 20260509225403 | 64 | 177 | 3.0 | 6.0 | 0.00 | 0.25 | 0.00 | 31 | 1016.8 |
| 20260509224503 | 64 | 169 | 3.0 | 6.0 | 0.00 | 0.25 | 0.00 | 39 | 1016.6 |
| 20260509223603 | 64 | 177 | 2.0 | 10.0 | 0.00 | 0.25 | 0.00 | 38 | 1017.0 |
| 20260509222703 | 64 | 172 | 3.0 | 10.0 | 0.00 | 0.25 | 0.00 | 34 | 1017.1 |
| 20260509221803 | 64 | 173 | 3.0 | 10.0 | 0.00 | 0.25 | 0.00 | 37 | 1017.1 |
| 20260509220903 | 64 | 170 | 3.0 | 10.0 | 0.00 | 0.25 | 0.00 | 36 | 1017.2 |
| 20260509220003 | 64 | 184 | 2.0 | 5.0 | 0.00 | 0.25 | 0.00 | 38 | 1017.5 |
| 20260509215403 | 64 | 173 | 3.0 | 7.0 | 0.00 | 0.25 | 0.00 | 36 | 1017.5 |
| 20260509214718 | 64 | 158 | 3.0 | 7.0 | 0.00 | 0.25 | 0.00 | 33 | 1017.5 |
| 20260509213817 | 65 | 166 | 3.0 | 7.0 | 0.00 | 0.25 | 0.00 | 36 | 1017.2 |
| 20260509212703 | 65 | 186 | 3.0 | 7.0 | 0.00 | 0.25 | 0.00 | 32 | 1017.2 |
| 20260509211803 | 66 | 168 | 5.0 | 13.0 | 0.00 | 0.25 | 0.00 | 29 | 1017.6 |
| 20260509211117 | 65 | 169 | 4.0 | 13.0 | 0.00 | 0.25 | 0.00 | 33 | 1017.4 |
| 20260509210003 | 65 | 168 | 5.0 | 11.0 | 0.00 | 0.25 | 0.00 | 32 | 1017.9 |
| 20260509205403 | 65 | 176 | 4.0 | 13.0 | 0.00 | 0.25 | 0.00 | 29 | 1017.8 |
| 20260509204503 | 65 | 168 | 4.0 | 9.0 | 0.00 | 0.25 | 0.00 | 38 | 1017.8 |
| 20260509203603 | 64 | 172 | 4.0 | 10.0 | 0.00 | 0.25 | 0.00 | 38 | 1018.0 |
| 20260509202703 | 64 | 182 | 3.0 | 7.0 | 0.00 | 0.25 | 0.00 | 44 | 1017.9 |
| 20260509202017 | 64 | 175 | 3.0 | 14.0 | 0.00 | 0.25 | 0.00 | 38 | 1018.1 |
| 20260509200903 | 63 | 184 | 3.0 | 9.0 | 0.00 | 0.25 | 0.00 | 44 | 1017.9 |